Paso Robles, CA

8:56 AM PDT on June 27, 2017 (GMT -0700)
Paso Robles Municipal

Weather History for KPRB - September, 2012

Change the Weather History Date:

Friday, September 14, 2012

  Actual Average Record
Temperature  
Mean Temperature 77 °F 70 °F  
Max Temperature 101 °F 89 °F 108 °F (1971)
Min Temperature 53 °F 51 °F 37 °F (1970)
Degree Days  
Heating Degree Days 0 1  
Month to date heating degree days 0 2  
Since 1 July heating degree days 4 10  
Cooling Degree Days 12 6  
Month to date cooling degree days 129 91  
Year to date cooling degree days 960 824  
Growing Degree Days 27 (Base 50)    
Moisture  
Dew Point 50 °F    
Average Humidity 51    
Maximum Humidity 89    
Minimum Humidity 12    
Precipitation  
Precipitation 0.00 in 0.01 in 0.05 in (2015)
Month to date precipitation 0.00 0.04  
Year to date precipitation 5.88 8.94  
Since 1 July precipitation 0.01  
Sea Level Pressure  
Sea Level Pressure 30.01 in    
Wind  
Wind Speed 6 mph (WSW)    
Max Wind Speed 20 mph    
Max Gust Speed 23 mph    
Visibility 10 miles    
Events      
T = Trace of Precipitation, MM = Missing Value Source: NWS Daily Summary

Daily Weather History Graph

Daily Weather History Graph

Search for Another Location

Airport or City:

Trip Planner

Search our weather history database for the weather conditions in past years. The results will help you decide how hot, cold, wet, or windy it might be!

Date:

Astronomy

Sep. 14, 2012 Rise Set
Actual Time 6:44 AM PDT 7:10 PM PDT
Civil Twilight 6:19 AM PDT 7:35 PM PDT
Nautical Twilight 5:49 AM PDT 8:05 PM PDT
Astronomical Twilight 5:18 AM PDT 8:36 PM PDT
Moon 5:16 AM PDT (9/14) 6:09 PM PDT (9/14)
Length of Visible Light 13h 16m
Length of Day
12h 25m
Waning Crescent, 2% of the Moon is Illuminated
Sep 14
Waning Crescent
Sep 15
New
Sep 22
First Quarter
Sep 29
Full
Oct 8
Last Quarter

Hourly Weather History & Observations

Time (PDT) Temp. Heat Index Dew Point Humidity Pressure Visibility Wind Dir Wind Speed Gust Speed Precip Events Conditions
12:53 AM 62.1 °F - 53.1 °F 72% 30.04 in 10.0 mi Calm Calm - N/A   Clear
1:53 AM 60.1 °F - 53.1 °F 78% 30.04 in 10.0 mi Calm Calm - N/A   Clear
2:53 AM 59.0 °F - 53.1 °F 81% 30.04 in 10.0 mi NNW 4.6 mph - N/A   Clear
3:53 AM 57.0 °F - 52.0 °F 83% 30.03 in 10.0 mi Calm Calm - N/A   Clear
4:53 AM 55.0 °F - 51.1 °F 86% 30.03 in 10.0 mi Calm Calm - N/A   Clear
5:53 AM 54.0 °F - 50.0 °F 86% 30.04 in 10.0 mi Calm Calm - N/A   Clear
6:53 AM 54.0 °F - 50.0 °F 86% 30.05 in 10.0 mi Calm Calm - N/A   Clear
7:28 AM 55.4 °F - 48.2 °F 77% 30.08 in 10.0 mi WSW 3.5 mph - N/A   Partly Cloudy
7:53 AM 57.0 °F - 51.1 °F 81% 30.06 in 10.0 mi Calm Calm - N/A   Clear
8:53 AM 63.0 °F - 53.1 °F 70% 30.06 in 10.0 mi Calm Calm - N/A   Clear
9:53 AM 69.1 °F - 54.0 °F 58% 30.06 in 10.0 mi Variable 3.5 mph - N/A   Clear
10:53 AM 78.1 °F - 54.0 °F 43% 30.04 in 10.0 mi West 5.8 mph - N/A   Clear
11:53 AM 86.0 °F 84.0 °F 53.1 °F 32% 30.02 in 10.0 mi NW 4.6 mph - N/A   Clear
12:53 PM 93.0 °F 90.6 °F 53.1 °F 26% 29.99 in 10.0 mi West 5.8 mph - N/A   Clear
1:53 PM 98.1 °F - 46.9 °F 18% 29.97 in 10.0 mi SW 8.1 mph - N/A   Clear
2:53 PM 100.0 °F - 39.0 °F 12% 29.95 in 10.0 mi SW 11.5 mph - N/A   Clear
3:53 PM 100.0 °F - 39.9 °F 13% 29.94 in 10.0 mi SSW 15.0 mph - N/A   Clear
4:53 PM 98.1 °F - 42.1 °F 15% 29.93 in 10.0 mi SSW 9.2 mph - N/A   Clear
5:53 PM 96.1 °F - 42.1 °F 15% 29.93 in 10.0 mi SSW 9.2 mph - N/A   Clear
6:53 PM 90.0 °F - 46.9 °F 23% 29.94 in 10.0 mi SSW 10.4 mph - N/A   Clear
7:53 PM 78.1 °F - 52.0 °F 40% 29.97 in 10.0 mi WNW 11.5 mph - N/A   Clear
8:53 PM 72.0 °F - 52.0 °F 49% 29.99 in 10.0 mi WNW 15.0 mph - N/A   Clear
9:53 PM 69.1 °F - 48.0 °F 47% 30.01 in 10.0 mi WNW 12.7 mph - N/A   Clear
10:53 PM 66.0 °F - 51.1 °F 59% 30.01 in 10.0 mi West 6.9 mph - N/A   Clear
11:53 PM 63.0 °F - 48.9 °F 60% 30.03 in 10.0 mi Calm Calm - N/A   Clear